Regional Weather Roundup
Issued by NWS Midland/Odessa, TX

Home | Current Version | Previous Version | Text Only | Print | Product List | Glossary On
Versions: 1 2 3 4 5 6 7 8 9 10 11 12 13 14 15 16 17 18 19 20 21 22 23 24 25 26 27 28 29 30 31 32 33 34 35 36 37 38 39 40 41 42 43 44 45 46 47 48 49 50
000
ASUS44 KMAF 162310
RWRMAF
MIDLAND AREA WEATHER ROUNDUP
NATIONAL WEATHER SERVICE MIDLAND TX
500 PM CST TUE JAN 16 2018

...IN SOUTHWEST TEXAS AND SOUTHEAST NEW MEXICO...

CITY           SKY/WX    TMP DP  RH WIND       PRES   REMARKS
ALPINE         CLOUDY    25  -6  25 NE8       30.54F WCI  16
ANDREWS        FAIR      30  -1  26 CALM      30.56F
ARTESIA        SUNNY     34   1  25 SE14      30.51F WCI  24
BIG SPRING     SUNNY     31  -2  24 N6        30.62F WCI  25
CARLSBAD       CLOUDY    30   3  31 S8        30.53F WCI  22
DRYDEN           N/A     40  -4  15 N10       30.60F WCI  33
FORT STOCKTON  CLOUDY    26  -2  29 E9        30.59F WCI  17
GUAD PASS      CLOUDY    22   1  40 E29       30.38F WCI   4
HOBBS          SUNNY     30   0  27 CALM      30.52F
LAMESA         CLOUDY    32  -2  23 NE8       30.57F WCI  25
MARFA          CLOUDY    25  -2  31 MISG      30.46F
MIDLAND AIRPK    N/A     32   0  25 NE7       30.59F WCI  26
MIDLAND INTL   CLOUDY    30  -1  26 CALM      30.58F
ODESSA         CLOUDY    29  -2  26 E5        30.58F WCI  24
PECOS          CLOUDY    32  -2  23 E8        30.60F WCI  24
PRESIDIO       CLOUDY    36  -4  18 NE13      30.52F WCI  27
SEMINOLE       SUNNY     32   0  26 E7        30.56S WCI  26
SNYDER         SUNNY     30  -5  22 NE8       30.61F WCI  22
WINK           CLOUDY    30  -2  25 CALM      30.58F
$$
...OTHER STATIONS IN TEXAS...

CITY           SKY/WX    TMP DP  RH WIND       PRES   REMARKS
ABILENE        CLEAR     25  -5  26 N15       30.65F WCI  13
AMARILLO       CLEAR     27   0  31 CALM      30.53F
AUSTIN         CLOUDY    28  14  55 N16       30.67F WCI  16
BROWNSVILLE    CLOUDY    34  30  86 NW17G30   30.59R WCI  23
CORPUS CHRISTI CLOUDY    29  24  82 N24       30.65R WCI  15
DALLAS FTW     PTCLDY    32   0  25 N17       30.67F WCI  21
DEL RIO        CLOUDY    35  -1  21 N8        30.67S WCI  29
EL PASO        PTSUNNY   36   8  31 E9        30.43F WCI  29
HOUSTON INT    LGTSLEET  26  20  77 N13       30.64S WCI  15
LUBBOCK        MOSUNNY   32   2  27 N8        30.54F WCI  25
SAN ANGELO     CLOUDY    27  -6  23 N7        30.65F WCI  19
SAN ANTONIO    CLOUDY    30   9  41 N13       30.65S WCI  20
WACO           CLOUDY    26   4  38 N14       30.72S WCI  14
WICHITA FALLS  PTCLDY    15   6  67 N8        30.70F WCI   4
$$
...OTHER LOCATIONS IN NEW MEXICO...

CITY           SKY/WX    TMP DP  RH WIND       PRES   REMARKS
ALAMOGORDO     SUNNY     39   5  24 SW6       30.43F WCI  35
ALBUQUERQUE    SUNNY     35  19  52 CALM      30.39F
CANNON AFB     SUNNY     31   8  37 S3        30.48F
CLOVIS         SUNNY     32   7  35 SW6       30.49F WCI  26
HOLLOMAN AFB   SUNNY     41   7  24 S3        30.45S
ROSWELL        SUNNY     35   4  27 S10       30.49F WCI  27
RUIDOSO        SUNNY     32   5  32 E6        30.37S WCI  26
SANTA FE       SUNNY     32  16  51 CALM      30.35F
TRUTH OR CONSE SUNNY     42  16  34 SW5       30.37F WCI  39
TUCUMCARI      SUNNY     38  12  34 S5        30.43F WCI  34
$$




USA.gov is the U.S. government's official web portal to all federal, state and local government web resources and services.